Miscellaneous Local Product
Issued by NWS Hastings, NE

Home | Current Version | Previous Version | Graphics & Text | Print | Product List | Glossary On
Versions: 1 2 3 4 5 6 7 8 9 10 11 12 13 14 15 16 17 18 19 20 21 22 23 24 25 26 27 28 29 30 31 32 33 34 35 36 37 38 39 40 41 42 43 44 45 46 47 48 49 50
000
AXUS43 KGID 210302
MISGRI

GID CWA HOURLY WEATHER ROUNDUP
NATIONAL WEATHER SERVICE HASTINGS NE
1000 PM CDT TUE JUN 20 2017

NOTE: "FAIR" INDICATES FEW OR NO CLOUDS BELOW 12,000 FEET WITH NO
SIGNIFICANT WEATHER AND/OR OBSTRUCTIONS TO VISIBILITY.

...SOUTH CENTRAL NEBRASKA...

CITY           SKY/WX    TMP DP  RH WIND       PRES   REMARKS
GRAND ISLAND   PTCLDY    81  59  47 SE10      29.90S
HASTINGS       CLOUDY    84  56  38 SE13G21   29.92R
KEARNEY        PTCLDY    79  61  53 SE9       29.92F
ORD            CLEAR     78  50  37 SE8       29.89R
YORK           PTCLDY    79  57  47 E9        29.90S
AURORA         PTCLDY    79  58  48 SE9       29.90S
LEXINGTON      CLEAR     77  65  66 S8        29.91S
HOLDREGE       CLOUDY    75  63  66 SE6       29.91S
HEBRON         MOCLDY    82  63  51 CALM      29.90R

...NEBRASKA PANHANDLE...

CITY           SKY/WX    TMP DP  RH WIND       PRES   REMARKS
CHADRON        CLEAR     76  49  38 SE12      29.84F
ALLIANCE       CLEAR     72  49  44 E8        29.91S
SCOTTSBLUFF    CLOUDY    81  52  36 SW6       29.95R
SIDNEY         CLEAR     74  42  31 S9        29.98S

...WESTERN AND NORTH CENTRAL NEBRASKA...

CITY           SKY/WX    TMP DP  RH WIND       PRES   REMARKS
VALENTINE      CLEAR     79  48  33 E9        29.89R
AINSWORTH      CLEAR     73  52  47 SE9       29.90S
ONEILL         CLEAR     74  54  48 E8        29.91S
BROKEN BOW     CLOUDY    81  57  43 S10       29.92R
IMPERIAL       CLEAR     79  59  50 S16       29.90R
NORTH PLATTE   LGT RAIN  82  64  54 SE9G20    29.90R
MCCOOK         CLOUDY    76  66  71 SE9       29.90R

...EASTERN NEBRASKA...

CITY           SKY/WX    TMP DP  RH WIND       PRES   REMARKS
NORFOLK        CLEAR     72  53  51 E3        29.91R
SO SIOUX CITY  CLEAR     73  53  49 E7        29.91R
TEKAMAH        CLEAR     73  54  51 E6        29.90R
ALBION         CLEAR     75  50  41 E7        29.91R
OMAHA EPPLEY   PTCLDY    79  55  43 CALM      29.91R
OFFUTT AFB     CLEAR     72  61  68 CALM      29.90R
MILLARD        CLEAR     78  58  49 CALM      29.91R
LINCOLN        CLEAR     81  56  42 E6        29.90S
NEBRASKA CITY  CLEAR     76  62  62 E5        29.92R
BEATRICE       MOCLDY    82  64  53 E7        29.90S
FALLS CITY     CLEAR     83  64  52 SE6       29.91R

...NORTHERN KANSAS...

CITY           SKY/WX    TMP DP  RH WIND       PRES   REMARKS
GOODLAND       CLOUDY    74  61  63 S12       29.94S
HILL CITY      CLOUDY    73  68  84 S3        29.90R
NORTON         CLEAR     75  59  57 SE5       29.89F
PHILLIPSBURG   PTCLDY    73  68  83 CALM      29.89S
SMITH CENTER   MOCLDY    73  68  83 E6        29.90S
HAYS           CLOUDY    76  67  73 VRB5      29.91R
RUSSELL        CLOUDY    75  65  70 SE8       29.87F
CONCORDIA      PTCLDY    79  64  60 S5        29.90R
SALINA         CLOUDY    81  63  54 SE8       29.88F
TOPEKA         CLEAR     81  69  67 CALM      29.92R



USA.gov is the U.S. government's official web portal to all federal, state and local government web resources and services.